Weather History for Juneau, AK

Change the Weather History Date:

Monday, March 17, 2014

  Actual Average Record
Temperature  
Mean Temperature 34 °F 34 °F  
Max Temperature 36 °F 40 °F 50 °F (1990)
Min Temperature 31 °F 28 °F -3 °F (2006)
Degree Days  
Heating Degree Days 31 31  
Month to date heating degree days 589 552  
Since 1 July heating degree days 6230 6389  
Cooling Degree Days 0 0  
Month to date cooling degree days 0 0  
Year to date cooling degree days 0 0  
Moisture  
Dew Point 31 °F    
Average Humidity 84    
Maximum Humidity 96    
Minimum Humidity 72    
Precipitation  
Precipitation 0.28 in 0.12 in 1.03 in (1956)
Month to date precipitation 2.76 2.19  
Year to date precipitation 14.89 11.67  
Snow  
Snow 2.00 in 0.40 in 9.60 in (1994)
Month to date snowfall 4.2 7.7  
Since 1 July snowfall 95.0 81.7  
Snow Depth T in    
Sea Level Pressure  
Sea Level Pressure 29.96 in    
Wind  
Wind Speed 14 mph (East)    
Max Wind Speed 25 mph    
Max Gust Speed 31 mph    
Visibility 6 miles    
Events Rain , Snow    
T = Trace of Precipitation, MM = Missing Value Source: NWS Daily Summary

Daily Weather History Graph

Daily Weather History Graph

Search for Another Location

Airport:

Trip Planner

Search our weather history database for the weather conditions in past years. The results will help you decide how hot, cold, wet, or windy it might be!

Date:

Astronomy

Mar. 17, 2014 Rise Set
Actual Time 7:08 AM AKDT 7:06 PM AKDT
Civil Twilight 6:28 AM AKDT 7:45 PM AKDT
Nautical Twilight 5:41 AM AKDT 8:32 PM AKDT
Astronomical Twilight 4:52 AM AKDT 9:23 PM AKDT
Moon 8:55 PM AKDT (3/17) 7:10 AM AKDT (3/17)
Length of Visible Light 13h 17m
Length of Day
11h 58m
Full, 99% of the Moon is Illuminated
Mar 17
Full
Mar 23
Last Quarter
Mar 30
New
Apr 7
First Quarter
Apr 14
Full

Hourly Weather History & Observations

Time (AKDT) Temp. Windchill Dew Point Humidity Pressure Visibility Wind Dir Wind Speed Gust Speed Precip Events Conditions
12:53 AM 32.0 °F 28.7 °F 24.1 °F 73% 30.00 in 10.0 mi East 3.5 mph - 0.00 in   Overcast
1:53 AM 32.0 °F 26.4 °F 25.0 °F 75% 30.00 in 10.0 mi ENE 5.8 mph - N/A   Overcast
2:53 AM 33.1 °F 25.5 °F 26.1 °F 75% 30.00 in 10.0 mi ESE 9.2 mph - N/A   Overcast
3:53 AM 32.0 °F 21.6 °F 27.0 °F 82% 29.99 in 9.0 mi ESE 15.0 mph - 0.00 in Snow Light Snow
4:53 AM 32.0 °F 23.0 °F 27.0 °F 82% 29.99 in 5.0 mi East 11.5 mph - 0.00 in Snow Light Snow
5:45 AM 30.9 °F 21.7 °F 28.9 °F 92% 29.98 in 3.0 mi East 11.5 mph - 0.01 in Snow Light Snow
5:53 AM 30.9 °F 21.7 °F 28.9 °F 92% 29.98 in 2.0 mi East 11.5 mph - 0.02 in Snow Light Snow
6:25 AM 30.9 °F 23.5 °F 28.9 °F 92% 29.97 in 3.0 mi East 8.1 mph - 0.02 in Snow Light Snow
6:53 AM 32.0 °F 22.5 °F 30.0 °F 92% 29.96 in 4.0 mi East 12.7 mph - 0.03 in Snow Light Snow
7:20 AM 32.0 °F 22.1 °F 30.0 °F 92% 29.95 in 1.0 mi East 13.8 mph - 0.01 in Snow Light Snow
7:48 AM 32.0 °F 23.0 °F 30.2 °F 93% 29.95 in 0.8 mi East 11.5 mph - 0.03 in Snow Light Snow
7:53 AM 32.0 °F 22.1 °F 30.0 °F 92% 29.95 in 1.0 mi East 13.8 mph - 0.04 in Snow Light Snow
8:19 AM 32.0 °F 20.8 °F 30.9 °F 96% 29.94 in 1.0 mi ESE 17.3 mph - 0.02 in Snow Light Snow
8:42 AM 33.1 °F 22.2 °F 30.9 °F 92% 29.93 in 2.0 mi East 17.3 mph - 0.03 in Snow Light Snow
8:53 AM 33.1 °F 23.0 °F 30.9 °F 92% 29.93 in 2.0 mi East 15.0 mph - 0.03 in Snow Light Snow
9:20 AM 33.1 °F 23.4 °F 30.9 °F 92% 29.92 in 1.5 mi East 13.8 mph - 0.02 in Snow Light Snow
9:40 AM 33.1 °F 24.9 °F 30.9 °F 92% 29.92 in 1.5 mi East 10.4 mph - 0.02 in Snow Light Snow
9:53 AM 33.1 °F 24.4 °F 30.9 °F 92% 29.92 in 2.5 mi East 11.5 mph - 0.03 in Snow Light Snow
10:53 AM 33.1 °F 23.0 °F 30.9 °F 92% 29.92 in 1.8 mi ESE 15.0 mph - 0.02 in Snow Light Snow
11:30 AM 33.1 °F 23.9 °F 32.0 °F 96% 29.93 in 2.5 mi East 12.7 mph - 0.03 in Snow Light Snow
11:53 AM 34.0 °F 23.0 °F 32.0 °F 92% 29.93 in 3.0 mi ESE 18.4 mph - 0.04 in Snow Light Snow
12:39 PM 35.1 °F 23.5 °F 32.0 °F 89% 29.95 in 3.0 mi ESE 21.9 mph 27.6 mph 0.02 in Rain , Snow Light Rain
12:53 PM 35.1 °F 23.3 °F 32.0 °F 89% 29.95 in 3.0 mi ESE 23.0 mph - 0.02 in Rain , Snow Light Rain
1:31 PM 35.1 °F 23.8 °F 32.0 °F 89% 29.94 in 3.0 mi East 20.7 mph 26.5 mph 0.02 in Rain , Snow Light Rain
1:53 PM 35.1 °F 23.8 °F 32.0 °F 89% 29.95 in 7.0 mi ESE 20.7 mph - 0.02 in Rain Light Rain
2:53 PM 36.0 °F 25.6 °F 32.0 °F 86% 29.96 in 8.0 mi ESE 18.4 mph - 0.01 in Rain Light Rain
3:53 PM 36.0 °F 26.3 °F 33.1 °F 89% 29.96 in 7.0 mi ESE 16.1 mph - 0.00 in Rain Light Rain
4:53 PM 36.0 °F 27.1 °F 33.1 °F 89% 29.97 in 10.0 mi SE 13.8 mph - 0.00 in Rain Light Rain
5:53 PM 36.0 °F 27.5 °F 33.1 °F 89% 29.96 in 10.0 mi ESE 12.7 mph - 0.00 in Rain Light Rain
6:53 PM 36.0 °F 27.1 °F 33.1 °F 89% 29.96 in 10.0 mi ESE 13.8 mph - 0.00 in   Overcast
7:24 PM 36.0 °F 29.6 °F 33.1 °F 89% 29.97 in 10.0 mi ESE 8.1 mph - 0.00 in Rain Light Rain
7:53 PM 35.1 °F 25.5 °F 33.1 °F 92% 29.97 in 7.0 mi East 15.0 mph - 0.01 in Rain Light Rain
8:00 PM 35.1 °F 26.9 °F 33.1 °F 92% 29.97 in 10.0 mi ENE 11.5 mph - 0.00 in Rain Light Rain
8:53 PM 36.0 °F 28.5 °F 33.1 °F 89% 29.98 in 10.0 mi East 10.4 mph - 0.01 in   Overcast
9:53 PM 36.0 °F 28.5 °F 33.1 °F 89% 29.98 in 10.0 mi East 10.4 mph - N/A   Overcast
10:53 PM 36.0 °F 28.5 °F 33.1 °F 89% 29.98 in 10.0 mi ENE 10.4 mph - N/A   Overcast
11:53 PM 36.0 °F 29.6 °F 33.1 °F 89% 29.98 in 10.0 mi ENE 8.1 mph - 0.00 in   Overcast